[[{"header":{"parameterUnit":"m.s-1","parameterCategory":1,"la1":30.2991,"la2":30.254,"lo1":-89.0895,"lo2":-89.0444,"dy":0.0017,"dx":0.0017,"nx":28,"ny":28,"refTime":"2024-02-10T09:00:00:Z","depth":0,"parameterNumber":2,"parameterNumberName":"U-component_of_WINDS"},"data":[0,0,0,0,0,0,0,0,0,0,0,0,0,0,0,0,0,0,0,0,0,0,0,0,0,0,0,0,0,0,0,0,0,0,0,0,0,0,0,0,0,0,0,0,0,0,0,0,0,0,0,0,0,0,0,0,0,0,-1.1024,-1.1024,0,-1.1004,-1.1004,-1.1004,-1.0988,-1.0988,-1.0988,-1.0988,-1.0966,-1.0965,-1.0965,0,0,0,0,0,0,0,0,0,0,0,0,0,-1.1049,-1.1048,-1.1024,-1.1024,-1.1024,-1.1004,-1.1004,-1.1003,-1.0988,-1.0988,-1.0988,-1.0988,-1.0966,-1.0965,-1.0965,0,0,0,0,0,0,0,0,0,0,0,0,0,-1.1034,-1.1048,-1.1024,-1.1014,-1.1013,-1.1004,-1.1004,-1.1003,-1.0988,-1.0988,-1.0988,-1.0988,-1.0966,-1.0965,-1.0965,-1.0965,0,0,-1.0963,-1.0962,0,0,0,0,0,0,0,0,-1.1035,-1.1033,-1.1016,-1.1014,-1.1013,-1.0998,-1.1004,-1.099,-1.0988,-1.0997,-1.0988,-1.0987,-1.0977,-1.0975,-1.0972,-1.0964,-1.0963,-1.0963,-1.0962,-1.0962,-1.0962,0,0,0,0,0,0,0,-1.1036,-1.1034,-1.1016,-1.1015,-1.1014,-1.101,-1.1007,-1.1002,-1.0988,-1.0997,-1.0995,-1.0993,-1.0976,-1.0972,-1.0971,-1.0962,-1.0963,-1.0962,-1.0962,-1.0961,-1.0953,-1.0953,0,0,0,0,0,0,-1.1039,-1.1035,-1.1017,-1.1016,-1.1024,-1.1009,-1.1007,-1.1003,-1.0988,-1.0986,-1.0994,-1.0993,-1.0974,-1.0972,-1.097,-1.0969,-1.0962,-1.0961,-1.0961,-1.0953,-1.0953,-1.0953,0,0,0,0,0,0,-1.1039,-1.1037,-1.1018,-1.1025,-1.1022,-1.1009,-1.1005,-1.1003,-1.0999,-1.0986,-1.0984,-1.0992,-1.0973,-1.0971,-1.0966,-1.0968,-1.0961,-1.096,-1.0953,-1.0953,-1.0953,-1.0966,0,0,0,0,0,0,-1.104,-1.1038,-1.1038,-1.1025,-1.1022,-1.1014,-1.1005,-1.1003,-1.0998,-1.0997,-1.0984,-1.0982,-1.0973,-1.0967,-1.0966,-1.0967,-1.096,-1.0952,-1.0953,-1.0953,-1.0966,-1.0967,-1.0968,0,0,0,0,0,-1.1041,-1.1042,-1.1038,-1.1036,-1.1022,-1.1014,-1.1012,-1.1003,-1.0999,-1.0998,-1.099,-1.0982,-1.0968,-1.0967,-1.0965,-1.0966,-1.0952,-1.0953,-1.0953,-1.0965,-1.0967,-1.0968,0,0,0,0,0,0,-1.1055,-1.104,-1.1035,-1.1032,-1.1025,-1.1012,-1.1011,-1.1005,-1.0998,-1.0997,-1.0984,-1.0982,-1.0978,-1.0971,-1.097,-1.0965,-1.0959,-1.0959,-1.0969,-1.0971,-1.0972,-1.0973,-1.0959,0,0,0,0,0,-1.1058,-1.1053,-1.1041,-1.1039,-1.1036,-1.1024,-1.1021,-1.1014,-1.1005,-1.1002,-1.0993,-1.0985,-1.0978,-1.0974,-1.0968,-1.0965,-1.0962,-1.0965,-1.0966,-1.0967,-1.0967,-1.0965,-1.0966,-1.0955,-1.0955,-1.0955,0,0,-1.1063,-1.1055,-1.1052,-1.1042,-1.1035,-1.103,-1.1022,-1.1017,-1.1013,-1.1001,-1.0996,-1.0989,-1.0979,-1.0975,-1.0973,-1.0969,-1.0969,-1.0968,-1.0969,-1.0968,-1.0965,-1.0966,-1.0967,-1.0955,-1.0955,-1.0955,0,0,-1.107,-1.1064,-1.1062,-1.1055,-1.1045,-1.1038,-1.1037,-1.1026,-1.1021,-1.1015,-1.1006,-1.1001,-1.0991,-1.0984,-1.0979,-1.0984,-1.0977,-1.0982,-1.0988,-1.0986,-1.0987,-1.0988,-1.0989,-1.099,-1.0982,-1.0982,-1.0982,0,-1.1078,-1.1071,-1.1061,-1.1057,-1.1053,-1.1042,-1.1039,-1.1034,-1.1022,-1.1019,-1.1016,-1.1002,-1.0995,-1.0989,-1.099,-1.0987,-1.0985,-1.0983,-1.0988,-1.0989,-1.0989,-1.099,-1.0991,-1.0983,-1.0983,-1.0983,-1.0983,0,-1.1081,-1.1076,-1.1076,-1.1065,-1.106,-1.1057,-1.1047,-1.1043,-1.1037,-1.103,-1.1024,-1.1015,-1.1006,-1.1004,-1.0998,-1.0997,-1.0996,-1.0991,-1.0984,-1.0991,-1.0992,-1.0992,-1.0984,-1.0984,-1.0984,-1.0983,0,0,-1.1096,-1.108,-1.108,-1.1075,-1.1063,-1.1059,-1.1056,-1.1048,-1.1044,-1.1037,-1.1033,-1.1025,-1.102,-1.1014,-1.1007,-1.1006,-1.101,-1.1,-1.1,-1.1002,-1.1008,-1.1011,-1.1012,-1.1005,-1.1005,-1.1005,-1.1009,0,-1.1101,-1.1094,-1.1085,-1.1081,-1.1076,-1.1066,-1.1062,-1.1055,-1.1048,-1.1043,-1.1035,-1.1029,-1.1024,-1.102,-1.1018,-1.101,-1.1011,-1.1009,-1.1001,-1.1001,-1.1003,-1.1013,-1.1016,-1.102,-1.1009,-1.1009,-1.1009,0,-1.1106,-1.1099,-1.1094,-1.1083,-1.1081,-1.1078,-1.107,-1.1065,-1.1056,-1.1051,-1.1045,-1.1038,-1.1033,-1.1028,-1.1021,-1.102,-1.1017,-1.1012,-1.1012,-1.101,-1.1005,-1.101,-1.1021,-1.1021,-1.101,-1.1009,-1.1009,0,-1.1116,-1.1106,-1.1102,-1.1098,-1.1085,-1.1083,-1.1078,-1.1069,-1.1064,-1.1057,-1.1054,-1.1046,-1.1042,-1.1036,-1.1026,-1.1024,-1.102,-1.1015,-1.1015,-1.1016,-1.1014,-1.1014,-1.1024,-1.1013,-1.1013,-1.1013,-1.1013,0,-1.1122,-1.1119,-1.1106,-1.1103,-1.11,-1.109,-1.1087,-1.1081,-1.1073,-1.1068,-1.1059,-1.1056,-1.1043,-1.1038,-1.1031,-1.1026,-1.1024,-1.1019,-1.1017,-1.102,-1.102,-1.1016,-1.1016,-1.1013,-1.1013,-1.1013,-1.1013,0,-1.1133,-1.1124,-1.1118,-1.1107,-1.1104,-1.1102,-1.1092,-1.1089,-1.1082,-1.1076,-1.1074,-1.1063,-1.1056,-1.1047,-1.1037,-1.1032,-1.1027,-1.1025,-1.103,-1.1029,-1.103,-1.103,-1.1037,-1.1037,-1.1027,-1.1027,-1.1027,0,-1.1137,-1.1135,-1.1123,-1.1119,-1.1114,-1.1109,-1.1105,-1.1095,-1.109,-1.108,-1.1078,-1.1071,-1.1064,-1.1054,-1.1045,-1.1037,-1.1033,-1.1036,-1.1032,-1.1035,-1.1033,-1.1033,-1.1032,-1.1037,-1.1037,-1.1037,-1.1037,0,-1.1145,-1.114,-1.1135,-1.1127,-1.1122,-1.1116,-1.1109,-1.1107,-1.1096,-1.1091,-1.1084,-1.1079,-1.1069,-1.1062,-1.1053,-1.1047,-1.104,-1.1039,-1.1039,-1.1041,-1.1044,-1.1042,-1.1032,-1.1039,-1.1038,-1.1038,-1.1038,-1.1038,-1.1152,-1.1149,-1.114,-1.1134,-1.1128,-1.1122,-1.1119,-1.1111,-1.1105,-1.1097,-1.1091,-1.1085,-1.1076,-1.1063,-1.1058,-1.1052,-1.1049,-1.1049,-1.1049,-1.1049,-1.1049,-1.1046,-1.105,-1.105,-1.105,-1.105,-1.105,0,-1.1159,-1.1153,-1.1147,-1.1138,-1.1133,-1.1128,-1.112,-1.1116,-1.111,-1.1103,-1.1097,-1.1089,-1.1082,-1.1072,-1.1064,-1.1062,-1.1058,-1.106,-1.1059,-1.1058,-1.1052,-1.1053,-1.1063,-1.1063,-1.1063,-1.1063,-1.1063,-1.1063,-1.1162,-1.1157,-1.1152,-1.1144,-1.1138,-1.1131,-1.1127,-1.1122,-1.1116,-1.1107,-1.1101,-1.1095,-1.1087,-1.1078,-1.1071,-1.1069,-1.1066,-1.1068,-1.1065,-1.106,-1.1058,-1.1057,-1.1058,-1.1068,-1.1068,-1.1071,-1.1071,-1.1071]},{"header":{"parameterUnit":"m.s-1","parameterCategory":1,"la1":30.2991,"la2":30.254,"lo1":-89.0895,"lo2":-89.0444,"dy":0.0017,"dx":0.0017,"nx":28,"ny":28,"refTime":"2024-02-10T09:00:00:Z","depth":0,"parameterNumber":3,"parameterNumberName":"V-component_of_WINDS"},"data":[0,0,0,0,0,0,0,0,0,0,0,0,0,0,0,0,0,0,0,0,0,0,0,0,0,0,0,0,0,0,0,0,0,0,0,0,0,0,0,0,0,0,0,0,0,0,0,0,0,0,0,0,0,0,0,0,0,0,2.2063,2.2063,0,2.206,2.206,2.206,2.2047,2.2046,2.2046,2.2046,2.2043,2.2043,2.2043,0,0,0,0,0,0,0,0,0,0,0,0,0,2.206,2.206,2.2063,2.2063,2.2063,2.206,2.206,2.206,2.2047,2.2046,2.2046,2.2046,2.2043,2.2043,2.2043,0,0,0,0,0,0,0,0,0,0,0,0,0,2.206,2.206,2.2063,2.2056,2.2056,2.206,2.206,2.206,2.2047,2.2046,2.2046,2.2045,2.2043,2.2043,2.2043,2.2055,0,0,2.2044,2.2045,0,0,0,0,0,0,0,0,2.206,2.206,2.2057,2.2057,2.2056,2.2053,2.2058,2.2058,2.2047,2.205,2.2046,2.2045,2.2047,2.2047,2.2047,2.2055,2.2055,2.2044,2.2045,2.2045,2.2045,0,0,0,0,0,0,0,2.206,2.206,2.2062,2.2057,2.2057,2.2054,2.2053,2.2058,2.2051,2.205,2.2049,2.2049,2.2046,2.2047,2.2047,2.2055,2.2044,2.2045,2.2045,2.2045,2.2075,2.2075,0,0,0,0,0,0,2.2061,2.206,2.2062,2.2062,2.2057,2.2054,2.2054,2.2055,2.2051,2.205,2.2049,2.2048,2.2047,2.2047,2.2047,2.2062,2.2045,2.2045,2.2045,2.2074,2.2075,2.2075,0,0,0,0,0,0,2.2061,2.2061,2.2062,2.2061,2.2061,2.2055,2.2056,2.2055,2.2055,2.205,2.2049,2.2051,2.2046,2.2046,2.2054,2.2062,2.2045,2.2046,2.2073,2.2074,2.2075,2.2091,0,0,0,0,0,0,2.2061,2.2061,2.2065,2.2061,2.2061,2.2069,2.2057,2.2055,2.2056,2.2055,2.2052,2.2051,2.2046,2.2053,2.2054,2.2062,2.2046,2.2073,2.2074,2.2075,2.209,2.2093,2.2095,0,0,0,0,0,2.2061,2.2069,2.2065,2.2065,2.2065,2.2069,2.2069,2.2063,2.2057,2.2061,2.2058,2.2051,2.2061,2.2054,2.2055,2.2063,2.2072,2.2074,2.2075,2.2089,2.2092,2.2095,0,0,0,0,0,0,2.2073,2.2068,2.2064,2.2071,2.2071,2.2067,2.2071,2.2066,2.2068,2.2066,2.2059,2.2058,2.2067,2.2066,2.2058,2.2076,2.2065,2.2067,2.2076,2.2079,2.2081,2.2082,2.2046,0,0,0,0,0,2.2076,2.2079,2.2075,2.2082,2.2082,2.2077,2.2078,2.2074,2.2073,2.2073,2.2071,2.2071,2.2074,2.2076,2.2079,2.209,2.209,2.2096,2.2099,2.2101,2.2102,2.211,2.2114,2.208,2.208,2.208,0,0,2.2084,2.2081,2.2084,2.2085,2.2084,2.2088,2.2077,2.2081,2.2085,2.2074,2.2081,2.208,2.2079,2.2089,2.2093,2.2088,2.2112,2.2102,2.2104,2.2104,2.2112,2.2115,2.2118,2.2081,2.2081,2.208,0,0,2.2099,2.2097,2.2104,2.2104,2.2103,2.21,2.2102,2.21,2.2099,2.2106,2.2099,2.2103,2.2108,2.2109,2.211,2.213,2.2124,2.2131,2.2143,2.2152,2.2154,2.2157,2.2165,2.2168,2.2132,2.2132,2.2132,0,2.2108,2.2114,2.2108,2.2114,2.2115,2.2106,2.2114,2.2114,2.2115,2.2117,2.2111,2.2119,2.2118,2.2129,2.2134,2.2135,2.2138,2.2131,2.2154,2.2157,2.2159,2.2167,2.217,2.2133,2.2133,2.2133,2.2133,0,2.2126,2.2131,2.2136,2.2138,2.214,2.2146,2.2143,2.2146,2.2142,2.214,2.2149,2.2148,2.2151,2.2154,2.2149,2.2165,2.2162,2.2155,2.2145,2.2163,2.2171,2.2174,2.2135,2.2134,2.2134,2.2134,0,0,2.2147,2.2148,2.215,2.2152,2.2152,2.2156,2.2163,2.2167,2.2171,2.2172,2.2179,2.2185,2.218,2.2181,2.2177,2.2184,2.2202,2.2177,2.2177,2.2183,2.2222,2.2228,2.2231,2.2198,2.2199,2.2199,2.2223,0,2.2164,2.2176,2.2172,2.2185,2.219,2.2183,2.219,2.2192,2.2191,2.2196,2.2195,2.22,2.2191,2.2193,2.2199,2.2199,2.221,2.2197,2.2206,2.2206,2.2207,2.2235,2.224,2.2262,2.2225,2.2226,2.2226,0,2.2183,2.2187,2.22,2.2202,2.2205,2.221,2.2215,2.222,2.2222,2.2221,2.2225,2.222,2.2229,2.2219,2.2232,2.2223,2.2227,2.2227,2.2228,2.2229,2.2218,2.2238,2.2269,2.2272,2.223,2.223,2.223,0,2.22,2.2208,2.2217,2.2219,2.2221,2.2226,2.2227,2.2229,2.2233,2.2237,2.224,2.2245,2.2248,2.2253,2.2251,2.2243,2.2265,2.2254,2.2265,2.2266,2.227,2.227,2.2303,2.2271,2.2271,2.2271,2.2271,0,2.2218,2.2227,2.2225,2.2231,2.2242,2.2238,2.2249,2.225,2.2252,2.2259,2.2254,2.226,2.2257,2.2264,2.2262,2.2274,2.2275,2.2276,2.2275,2.2277,2.2277,2.228,2.2278,2.2272,2.2272,2.2271,2.2271,0,2.2238,2.2236,2.2247,2.2249,2.225,2.2258,2.226,2.2267,2.2267,2.2276,2.2278,2.2277,2.2286,2.2284,2.2293,2.2292,2.2308,2.2305,2.2307,2.2307,2.2319,2.2319,2.2355,2.2361,2.2324,2.2325,2.2325,0,2.225,2.2257,2.226,2.2265,2.2267,2.2274,2.2279,2.2276,2.2281,2.2287,2.2293,2.2301,2.2307,2.2321,2.2322,2.2329,2.2327,2.234,2.2328,2.2331,2.2329,2.233,2.2331,2.2342,2.2343,2.2343,2.2343,0,2.2272,2.2272,2.2278,2.2285,2.2291,2.2296,2.2301,2.2305,2.2304,2.231,2.2319,2.2324,2.2334,2.2343,2.235,2.2352,2.2348,2.2347,2.2351,2.2352,2.2354,2.2355,2.2315,2.2346,2.2346,2.2346,2.2346,2.2345,2.2289,2.2296,2.2301,2.2309,2.2313,2.2318,2.2325,2.2327,2.2334,2.2343,2.2341,2.2352,2.2357,2.2367,2.237,2.2379,2.2375,2.2379,2.238,2.2382,2.2384,2.2352,2.2381,2.238,2.238,2.238,2.238,0,2.2312,2.2315,2.2323,2.2331,2.2338,2.2335,2.2341,2.2347,2.2357,2.2362,2.2369,2.2381,2.239,2.2393,2.2402,2.2409,2.2408,2.2412,2.2412,2.2413,2.2387,2.2384,2.2413,2.2413,2.2413,2.2413,2.2413,2.2413,2.2325,2.2338,2.2339,2.2354,2.2358,2.2369,2.2373,2.2379,2.2383,2.2397,2.2405,2.2407,2.2412,2.2422,2.2431,2.2432,2.2436,2.2441,2.2441,2.2417,2.2414,2.2411,2.2408,2.2442,2.2442,2.2467,2.2467,2.2467]}]]